Location: Pensacola
(30.4142°N, 87.2155°W)
Time: 04:21:01
(UTC-05:00)

Hubble Space Telescope - Pass Details

Date: 03 February 2023
Orbit: 526 x 530 km, 28.5° (Epoch: 01 April)

Event Time Altitude Azimuth Distance (km) Brightness Sun altitude
Exits shadow 05:14:47 20° 215° (SW) 1,270 2.4 -18.4°
Maximum altitude 05:15:24 20° 203° (SSW) 1,244 2.5 -18.3°
Drops below altitude 10° 05:18:27 10° 154° (SSE) 1,764 3.9 -17.6°
Sets 05:21:08 0° 137° (SE) 2,653 5.2 -17.0°
